Location: Go?cza
(50.3372°N, 19.9313°E)
Time: 00:09:30
(UTC+00:00)

Meteor 2-5 Rocket - Pass Details

Date: 23 May 2024
Orbit: 832 x 911 km, 81.2° (Epoch: 18 June)

Event Time Altitude Azimuth Distance (km) Brightness Sun altitude
Exits shadow 01:00:33 - 175° (S) 2,755 5.9 -12.3°
Reaches altitude 10° 01:01:02 10° 174° (S) 2,577 5.8 -12.2°
Maximum altitude 01:06:48 60° 96° (E) 1,043 4.3 -11.7°
Drops below altitude 10° 01:12:40 10° 18° (NNE) 2,611 7.6 -11.2°
Sets 01:15:10 0° 15° (NNE) 3,556 8.4 -10.9°
